DECAYED

FENGYUN 1C DEB, 31220 (Decayed)

Orbit data source: Space-Track

FENGYUN 1C DEB, 31220 was space debris in SSO originally from a launch on Mon, 10 May 1999 UTC launched from the Taiyaun Space Center, China (TSC). Fengyun 1C debris stems from the Chinese weather satellite Fengyun-1C, which was intentionally destroyed by a Chinese anti-satellite missile in 2007. This event dramatically increased the amount of space debris, with thousands of trackable fragments posing hazards to satellites and human spaceflight. The Fengyun 1C debris cloud has become a focal point in discussions about space sustainability and the need for international regulations to prevent the creation of new debris.

Not visible in the next 10 days
FENGYUN 1C DEB details
Identifier
31220, 1999-025BLA
Orbit
Decayed
Last TLE update1 month ago
Origin
Flag of CNCASC (CN / PRC)
ManufacturerUnknown
MissionDecayed spacecraft
Bus & MotorUnknown
MassUnknown
Launch date (UTC)
1999-05-10 (26 years ago)
Launch vehicleUnknown
Launch site
Taiyaun Space Center, China (TSC)
Object type
Payload
Rocket body
Debris
Shape & HBRUnknown
Radar Cross SectionSmall (<0.1 m²)

Expand to show TLE details & history

TLE from 1 month ago
0 FENGYUN 1C DEB
1 31220U 99025BLA 24366.42674627  .01566354  00000-0  21027-1 0  9995
2 31220  98.9718  73.6547 0015328 339.2963  20.7663 15.55029700933494
Epoch: 2024-12-31T10:14Z
Definitive object data (Epoch: 2024-12-31T10:14:30.877Z)
Latitude-0.00007°
Longitude179.69151°
Altitude395.436 km
Speed7.679 km/s
True Right ascension04h 54m 37s
True Declination0° 00' 00"
Sunlit
Object was in full shadow at TLE epoch
Visualization observer readout
Observer readout values are unavailable because the object's trajectory could not be propagated. This is usually caused when the trajectory data is faulty or the object's orbit has decayed.
Visualization observer readout
Observer readout values are unavailable because the object's trajectory could not be propagated. This is usually caused when the trajectory data is faulty or the object's orbit has decayed.
Orbital elements
Apogee altitude409.449 km
Perigee altitude388.673 km
Semi-major axis6,777.198 km
Eccentricity0.0015328
Inclination98.9718°
RAAN73.6547°
Arg. of periapsis339.2963°
True anomaly20.82869°
Mean anomaly20.7663°
Eccentric anomaly20.79748°
Mean motion3.89016 °/min
BSTAR0.021027
Orbital period92.54 mins
Loading maneuver chart data...
Loading historical data...
Loading historical data...
Loading historical data...
Loading historical data...
Loading historical data...
Loading historical data...
Loading historical data...

FENGYUN 1C DEB Visibility forecast

Observer location: undefined°, undefined

This satellite is decayed
Span
Click to sort rows by Start time (UTC) header in descending order
Start Az.
Max El. time (UTC)
Max El. Az.
Max El.
End time (UTC)
End Az.
|